| time (UTC) | temp C | wind direction | speed KPH | gust KPH | rain 1hr cm | rain 24hr cm | rain mn cm | humidity % | barometer mb |
| 20260504221017 | 20 | 3 | 1.6 | 1.6 | 0.00 | 0.86 | 0.00 | 100 | 1022.2 |
| 20260504220018 | 20 | 315 | 0.0 | 1.6 | 0.00 | 0.86 | 0.00 | 100 | 1022.5 |
| 20260504215018 | 20 | 6 | 0.0 | 1.6 | 0.00 | 0.86 | 0.00 | 100 | 1022.2 |
| 20260504214017 | 20 | 301 | 1.6 | 1.6 | 0.00 | 0.86 | 0.00 | 100 | 1022.0 |
| 20260504213018 | 20 | 305 | 0.0 | 1.6 | 0.00 | 0.86 | 0.00 | 100 | 1021.7 |
| 20260504212017 | 20 | 180 | 0.0 | 1.6 | 0.00 | 0.86 | 0.00 | 100 | 1021.3 |
| 20260504211117 | 20 | 259 | 0.0 | 1.6 | 0.00 | 0.86 | 0.00 | 100 | 1021.0 |
| 20260504210018 | 20 | 270 | 0.0 | 1.6 | 0.00 | 0.86 | 0.00 | 100 | 1021.2 |
| 20260504205016 | 20 | 279 | 0.0 | 1.6 | 0.00 | 0.86 | 0.00 | 100 | 1021.2 |
| 20260504204037 | 20 | 270 | 1.6 | 1.6 | 0.00 | 0.86 | 0.00 | 100 | 1021.2 |
| 20260504202019 | 20 | 283 | 1.6 | 1.6 | 0.00 | 0.86 | 0.00 | 100 | 1021.5 |
| 20260504201038 | 20 | 239 | 0.0 | 1.6 | 0.00 | 0.86 | 0.00 | 100 | 1021.4 |
| 20260504200018 | 20 | 261 | 0.0 | 1.6 | 0.00 | 0.86 | 0.00 | 100 | 1021.1 |
| 20260504195017 | 20 | 285 | 1.6 | 1.6 | 0.00 | 0.86 | 0.00 | 100 | 1021.1 |
| 20260504194019 | 20 | 293 | 1.6 | 1.6 | 0.00 | 0.86 | 0.00 | 100 | 1021.2 |
| 20260504193017 | 21 | 196 | 0.0 | 1.6 | 0.00 | 0.86 | 0.00 | 100 | 1020.6 |
| 20260504192017 | 21 | 231 | 1.6 | 3.2 | 0.00 | 0.86 | 0.00 | 100 | 1020.8 |
| 20260504191016 | 21 | 222 | 1.6 | 3.2 | 0.00 | 0.86 | 0.00 | 100 | 1020.8 |
| 20260504190023 | 20 | 246 | 1.6 | 3.2 | 0.00 | 0.86 | 0.00 | 100 | 1021.2 |
| 20260504185017 | 20 | 259 | 1.6 | 4.8 | 0.00 | 0.86 | 0.00 | 100 | 1021.2 |
| 20260504184016 | 21 | 242 | 1.6 | 3.2 | 0.00 | 0.86 | 0.00 | 100 | 1021.3 |
| 20260504183017 | 21 | 253 | 1.6 | 4.8 | 0.00 | 0.86 | 0.00 | 100 | 1021.5 |
| 20260504182017 | 21 | 259 | 1.6 | 3.2 | 0.00 | 0.86 | 0.86 | 100 | 1021.8 |
| 20260504181036 | 21 | 298 | 1.6 | 1.6 | 0.00 | 0.86 | 0.86 | 100 | 1021.9 |
| 20260504180017 | 21 | 313 | 0.0 | 1.6 | 0.00 | 0.86 | 0.86 | 100 | 1021.5 |
| 20260504175018 | 21 | 41 | 1.6 | 3.2 | 0.00 | 0.86 | 0.86 | 100 | 1021.8 |
| 20260504174016 | 21 | 54 | 1.6 | 4.8 | 0.00 | 0.86 | 0.86 | 100 | 1021.6 |
| 20260504173017 | 21 | 55 | 1.6 | 1.6 | 0.00 | 0.86 | 0.86 | 100 | 1021.0 |
| 20260504172016 | 21 | 76 | 3.2 | 6.4 | 0.00 | 0.86 | 0.86 | 100 | 1020.0 |
| 20260504171017 | 21 | 29 | 1.6 | 3.2 | 0.00 | 0.86 | 0.86 | 97 | 1019.7 |
| 20260504151017 | 20 | 39 | 3.2 | 4.8 | 0.00 | 0.84 | 0.84 | 100 | 1022.4 |
| 20260504141018 | 20 | 8 | 1.6 | 3.2 | 0.03 | 0.84 | 0.84 | 100 | 1021.6 |
| 20260504081017 | 23 | 95 | 4.8 | 9.7 | 0.48 | 0.48 | 0.48 | 100 | 1015.3 |
| 20260504050017 | 33 | 269 | 3.2 | 9.7 | 0.00 | 0.00 | 0.00 | 48 | 1001.1 |
| 20260504045016 | 32 | 265 | 3.2 | 6.4 | 0.00 | 0.00 | 0.00 | 50 | 1002.6 |
| 20260504044016 | 33 | 273 | 3.2 | 6.4 | 0.00 | 0.00 | 0.00 | 50 | 1001.5 |
| 20260504043017 | 32 | 266 | 3.2 | 8.0 | 0.00 | 0.00 | 0.00 | 53 | 1003.5 |
| 20260504042016 | 31 | 295 | 3.2 | 6.4 | 0.00 | 0.00 | 0.00 | 54 | 1004.5 |
| 20260504041017 | 31 | 317 | 1.6 | 6.4 | 0.00 | 0.00 | 0.00 | 55 | 1005.1 |
| 20260504040017 | 31 | 293 | 3.2 | 6.4 | 0.00 | 0.00 | 0.00 | 57 | 1005.2 |
| 20260504035018 | 31 | 258 | 3.2 | 8.0 | 0.00 | 0.00 | 0.00 | 60 | 1005.3 |
| 20260504034017 | 30 | 293 | 1.6 | 6.4 | 0.00 | 0.00 | 0.00 | 69 | 1007.2 |
| 20260504033017 | 28 | 298 | 3.2 | 6.4 | 0.00 | 0.00 | 0.00 | 70 | 1008.2 |
| 20260504032018 | 30 | 266 | 3.2 | 6.4 | 0.00 | 0.00 | 0.00 | 69 | 1006.7 |
| 20260504031017 | 28 | 282 | 1.6 | 6.4 | 0.00 | 0.00 | 0.00 | 77 | 1008.2 |
| 20260504030018 | 28 | 280 | 1.6 | 4.8 | 0.00 | 0.00 | 0.00 | 76 | 1008.4 |
| 20260504025016 | 28 | 259 | 1.6 | 6.4 | 0.00 | 0.00 | 0.00 | 81 | 1008.5 |
| 20260504024017 | 27 | 251 | 1.6 | 6.4 | 0.00 | 0.00 | 0.00 | 88 | 1009.5 |
| 20260504023018 | 27 | 261 | 1.6 | 4.8 | 0.00 | 0.00 | 0.00 | 94 | 1009.6 |
| 20260504022018 | 26 | 250 | 1.6 | 4.8 | 0.00 | 0.00 | 0.00 | 100 | 1011.0 |
| 20260504021017 | 26 | 276 | 1.6 | 6.4 | 0.00 | 0.00 | 0.00 | 100 | 1011.8 |
| 20260504020018 | 25 | 285 | 1.6 | 4.8 | 0.00 | 0.00 | 0.00 | 100 | 1013.4 |
| 20260504015036 | 24 | 268 | 1.6 | 6.4 | 0.00 | 0.00 | 0.00 | 100 | 1015.2 |
| 20260504013016 | 22 | 332 | 1.6 | 4.8 | 0.00 | 0.00 | 0.00 | 100 | 1017.8 |
| 20260504012018 | 21 | 62 | 1.6 | 4.8 | 0.00 | 0.00 | 0.00 | 100 | 1019.8 |
| 20260504011017 | 21 | 34 | 3.2 | 11.3 | 0.00 | 0.00 | 0.00 | 100 | 1020.4 |
| 20260504010016 | 21 | 40 | 1.6 | 6.4 | 0.00 | 0.00 | 0.00 | 100 | 1020.6 |
| 20260504005018 | 21 | 22 | 1.6 | 3.2 | 0.00 | 0.00 | 0.00 | 100 | 1020.2 |
| 20260504004037 | 21 | 36 | 1.6 | 6.4 | 0.00 | 0.00 | 0.00 | 100 | 1020.4 |
| 20260504003018 | 21 | 42 | 1.6 | 4.8 | 0.00 | 0.00 | 0.00 | 100 | 1020.1 |
| 20260504002016 | 21 | 30 | 1.6 | 3.2 | 0.00 | 0.00 | 0.00 | 100 | 1019.8 |
| 20260504001017 | 21 | 352 | 0.0 | 1.6 | 0.00 | 0.00 | 0.00 | 100 | 1019.8 |